Location: Muck Cross
(36.7179°N, 78.3678°W)
Time: 20:49:32
(UTC+00:00)

Transit 2A - Visible Passes

Search period start: 21 March 2023 00:00
Search period end: 31 March 2023 00:00
Orbit: 591 x 964 km, 66.7° (Epoch: 21 March)

Date Brightness Start Highest point End Pass type
(mag) Time Alt. Az. Time Alt. Az. Time Alt. Az.
21 Mar 7.4 10:18:58 10° S 10:23:48 42° ESE 10:29:09 10° NE visible
22 Mar 8.1 09:45:03 10° SSE 09:49:23 28° ESE 09:54:08 10° NE visible
23 Mar 8.6 09:11:35 10° SE 09:15:03 18° ESE 09:18:45 10° ENE visible
24 Mar 8.9 08:39:12 10° ESE 08:40:46 11° E 08:42:23 10° E visible
24 Mar 6.1 10:17:43 10° SSW 10:22:56 81° WNW 10:28:48 10° NNE visible
25 Mar 6.4 09:43:24 11° SSW 09:48:21 68° ESE 09:54:08 10° NNE visible
26 Mar 7.1 09:10:31 20° S 09:13:52 45° ESE 09:19:20 10° NE visible
27 Mar 7.7 08:37:29 23° SE 08:39:27 29° ESE 08:44:20 10° NE visible
27 Mar 6.8 10:17:59 12° WSW 10:22:27 37° NW 10:27:54 10° NNE visible
28 Mar 8.2 08:04:21 19° ESE 08:05:06 19° ESE 08:09:00 10° ENE visible
28 Mar 6.3 09:44:50 26° WSW 09:47:41 53° WNW 09:53:29 10° NNE visible
29 Mar 8.7 07:31:07 12° E 07:31:07 12° E 07:32:52 10° ENE visible
29 Mar 6.0 09:11:36 51° SW 09:13:01 78° WNW 09:18:56 10° NNE visible
30 Mar 6.2 08:38:16 71° SE 08:38:25 71° ESE 08:44:17 10° NNE visible
30 Mar 7.8 10:18:45 11° W 10:22:20 19° NW 10:26:25 10° N visible
